Вернуться в каталог

STARLINK-11236

АктивенСвязьVLEO
NORAD 61062·PAYLOAD·🇺🇸 United States

Запущен Sep 13, 2024 с Vandenberg Space Force Base

Loading…

Ближайшие Пролёты (ближайшие 24 часа)

TLE

СвежийSource: CelesTrak SupGP

Эпоха: Sep 14, 2026, 20:58 UTC

1 61062C 24164N   26257.87409722 -.00046960  00000+0 -38681-3 0  2575
2 61062  53.1571  98.7287 0001167  91.1960 190.4968 15.69733661    16

Отслеживайте STARLINK-11236 в реальном времени с AllMySat

Download on the App Store